Location: Namasale
(1.5000°N, 32.6167°E)
Time: 19:06:33
(UTC+00:00)

Courier 1B - Pass Details

Date: 21 April 2021
Orbit: 962 x 1209 km, 28.3° (Epoch: 10 May)

Event Time Altitude Azimuth Distance (km) Brightness Sun altitude
Rises 20:27:34 0° 258° (WSW) 3,861 - -65.8°
Reaches altitude 10° 20:31:39 10° 236° (SW) 2,961 - -66.6°
Maximum altitude 20:35:38 15° 203° (SSW) 2,634 - -67.4°
Drops below altitude 10° 20:39:45 10° 169° (S) 3,058 - -68.2°
Sets 20:44:08 0° 148° (SSE) 4,062 - -69.0°
